Location: Caltech
(34.1382°N, 118.1253°W)
Time: 12:19:00
(UTC-07:00)

Sapphire - Visible Passes

Search period start: 20 June 2018 00:00
Search period end: 30 June 2018 00:00
Orbit: 785 x 796 km, 67.1° (Epoch: 19 June)

Date Brightness Start Highest point End Pass type
(mag) Time Alt. Az. Time Alt. Az. Time Alt. Az.
20 Jun ? 00:48:59 10° WNW 00:50:38 11° NW 00:52:18 10° NNW visible
20 Jun ? 22:35:00 60° SSE 22:35:46 69° ESE 22:41:10 10° NNE visible
21 Jun ? 00:16:30 10° W 00:19:40 16° NW 00:22:51 10° NNW visible
21 Jun ? 22:03:31 36° SSE 22:05:08 48° ESE 22:10:20 10° NE visible
21 Jun ? 23:44:43 10° WSW 23:48:45 21° NW 23:52:50 10° N visible
22 Jun ? 21:31:27 19° SSE 21:34:32 33° ESE 21:39:22 10° NE visible
22 Jun ? 23:13:16 10° WSW 23:17:54 28° NW 23:22:34 10° N visible
23 Jun ? 20:59:47 10° SSE 21:03:58 23° ESE 21:08:12 10° NE visible
23 Jun ? 22:42:04 10° SW 22:47:06 39° WNW 22:52:11 10° N visible
24 Jun ? 22:11:03 10° SW 22:16:20 55° WNW 22:21:40 10° NNE visible
25 Jun ? 21:40:13 10° SSW 21:45:37 78° WNW 21:51:04 10° NNE visible
25 Jun ? 23:28:56 10° NW 23:29:53 10° NW 23:30:51 10° NW visible
26 Jun ? 21:09:33 10° SSW 21:14:56 75° ESE 21:20:22 10° NNE visible
26 Jun ? 22:56:00 10° W 22:58:54 14° NW 23:01:50 10° NNW visible
27 Jun ? 20:39:04 10° S 20:44:18 52° ESE 20:49:33 10° NE visible
27 Jun ? 22:24:07 10° W 22:27:59 20° NW 22:31:53 10° N visible
28 Jun ? 21:52:36 10° WSW 21:57:07 26° NW 22:01:40 10° N visible
29 Jun ? 05:01:27 10° NNE 05:04:33 15° NE 05:07:38 10° E visible
29 Jun ? 21:21:20 10° SW 21:26:18 36° WNW 21:31:18 10° N visible
